Location: Rostock
(54.0884°N, 12.1234°E)
Time: 22:32:14
(UTC+02:00)

ISS - Visible Passes

Search period start: 26 July 2017 00:00
Search period end: 05 August 2017 00:00
Orbit: 400 x 408 km, 51.6° (Epoch: 27 July)

Date Brightness Start Highest point End Pass type
(mag) Time Alt. Az. Time Alt. Az. Time Alt. Az.
26 Jul -3.8 00:52:06 10° W 00:55:18 55° S 00:56:42 29° ESE visible
26 Jul -1.7 02:28:34 10° W 02:29:15 14° W 02:29:15 14° W visible
26 Jul -3.1 22:23:56 10° SW 22:26:53 32° SSE 22:29:50 10° E visible
26 Jul -3.8 23:59:51 10° WSW 00:03:03 56° S 00:05:20 17° ESE visible
27 Jul -2.4 01:36:13 10° W 01:37:55 25° WSW 01:37:55 25° WSW visible
27 Jul -3.7 23:07:38 10° WSW 23:10:49 51° S 23:13:59 10° E visible
28 Jul -3.6 00:43:55 10° W 00:46:58 47° SSW 00:46:58 47° SSW visible
28 Jul -3.5 22:15:26 10° WSW 22:18:33 44° SSE 22:21:41 10° E visible
28 Jul -3.8 23:51:36 10° W 23:54:48 53° S 23:56:08 30° ESE visible
29 Jul -1.5 01:28:07 10° W 01:28:45 14° WSW 01:28:45 14° WSW visible
29 Jul -3.8 22:59:19 10° WSW 23:02:31 56° S 23:05:21 13° ESE visible
30 Jul -2.8 00:35:42 10° W 00:37:58 30° SW 00:37:58 30° SW visible
30 Jul -3.7 22:07:02 10° WSW 22:10:13 53° S 22:13:25 10° E visible
30 Jul -3.5 23:43:21 10° W 23:46:29 44° SSW 23:47:12 36° SSE visible
31 Jul -3.6 22:51:00 10° W 22:54:11 52° S 22:56:29 17° ESE visible
01 Aug -2.0 00:27:34 10° W 00:29:05 19° WSW 00:29:05 19° WSW visible
01 Aug -3.7 21:58:40 10° W 22:01:52 56° S 22:05:04 10° ESE visible
01 Aug -3.0 23:35:05 10° W 23:38:02 32° SSW 23:38:22 31° S visible
02 Aug -3.3 22:42:40 10° W 22:45:46 41° SSW 22:47:40 19° SE visible
03 Aug -1.4 00:19:43 10° WSW 00:20:18 12° WSW 00:20:18 12° WSW visible
03 Aug -3.5 21:50:17 10° W 21:53:27 49° S 21:56:37 10° ESE visible
03 Aug -2.3 23:26:55 10° W 23:29:29 21° SSW 23:29:36 21° SSW visible
04 Aug -2.7 22:34:22 10° W 22:37:14 29° SSW 22:38:56 18° SSE visible
